Погода в Каневке

Погода в Каневке : погода сейчас, прогноз погоды и архив. Всё, что Вы хотите узнать о погоде в Каневке!

Поиск расширенной информации на нашем сайте:

Другие новости

Новости СМИ2

Главная страница сайта

Новости сайта

03.07.2017

Напоминаем, что на нашем специализированном сайте Метеоцентр.Азия вы можете получить высокодетализированные автоматические прогнозы погоды по пунктам России, СНГ и мира в авиационном формате (включающие направление и скорость ветра, видимость, явления погоды, количество и форму облачности, нижнюю и верхнюю границу облачности).


Погода в Каневке - сегодня

Время (UTC), дата Ветер
(°,м/с) 
Видим.   Явления Облачность Т
(°С)
Тd
(°С)
f(%) Тe
(°С)
Pmin
(гПа)
dP
(гПа)
Po
(мм)
O2
(г/м3)
Тmin Tmax R s Состояние
почвы
15 14.10.17 110 (В) 1-2  20000 м    10/10 200 м 
[St]
+3.4 +1.6 88 +4  1014.4  -0.7  747  297         
18 14.10.17 080 (В) 2-5  20000 м    10/10 300 м 
[St]
+3.1 +0.9 85 +3  1013.3  -1  746  297    +4.9       
21 14.10.17 110 (В) 2-3  н/о    н/о 
+2.1 -0.2 85 +1  1011.7  -1.6  745  298           
00 15.10.17 050 (СВ) 2-3  н/о    н/о 
+0.8 -0.6 90 1010.4  -1.4  744  299           
03 15.10.17 090 (В) 3-6  н/о    н/о 
+2.2 +0.3 87 +1  1009.3  -1  743  297  +0.5         
06 15.10.17 070 (В) 2-6  20000 м    10/10 300 м 
[St]
+3.1 +1.2 87 +3  1008.4  -0.8  742  296  +0.5         
09 15.10.17 080 (В) 3-7  20000 м    9/9 300 м кучево-дожд. 
[Cb cap]
+4.8 +2.3 84 +4  1008.8  0.5  743  294           
12 15.10.17 070 (В) 3-7  20000 м  слаб. ливневой дождь  9/9 300 м кучево-дожд. 
[Cb cap]
+4.4 +1.7 83 +3  1009.2  0.4  743  294           
15 15.10.17 080 (В) 2-4  20000 м  слаб. ливневой дождь  10/10 300 м кучево-дожд. 
[Cb cap]
+3 +1.7 91 +2  1010.4  1.1  744  296      0.3     
18 15.10.17 080 (В) 2-4  20000 м  {ливн. осадки}  10/10 300 м 
[St]
+3.2 +1.5 89 +3  1010.9  0.5  744  296    +5.1  0.3     
21 15.10.17 080 (В) 2-5  н/о    н/о 
+2.8 +0.8 87 +2  1011.2  0.5  744  297           
00 16.10.17 060 (СВ) 1-2  н/о    н/о 
+2.4 +0.9 90 +3  1011  -0.2  744  297           
03 16.10.17 050 (СВ) 2-3  н/о    н/о 
+2.5 +1.4 92 +2  1010.1  -0.8  744  297  +2.4         
06 16.10.17 тихо ()   1000 м  дымка  10/10 100 м 
[St]
+2.5 +1.5 93 +3  1009.1  -1  743  296  +2.4         
09 16.10.17 160 (Ю) 1-2  0500 м  туман  н/о 
+3.1 +2.1 93 +4  1007.4  -1.6  742  295           
12 16.10.17 120 (ЮВ) 2-3  20000 м  в посл. час ливневой дождь{туман}  10/10 200 м кучево-дожд. 
[Cb cap]
+3.6 +2.5 92 +3  1005  -2.3  740  294           
15 16.10.17 180 (Ю) 2-3  20000 м  {ливн. осадки}  10/10 300 м кучево-дожд. 
[Cb cap]
+3.1 +1.8 91 +3  1001.7  -3.2  737  294      0.4     
18 16.10.17 150 (ЮВ) 3-6  20000 м  слаб. ливневой дождь  10/10 300 м кучево-дожд. 
[Cb cap]
+2.8 +1.7 92 +1  997.1  -4.5  734  292    +3.7  0.4     
21 16.10.17 140 (ЮВ) 4-7{10}  н/о    н/о 
+2.1 +0.8 91 992.2  -4.8  730  292           
00 17.10.17 130 (ЮВ) 4-7  н/о    н/о 
+1.4 +0.1 91 -1  988.1  -4.1  727  291           
03 17.10.17 100 (В) 2-4  н/о    н/о 
+1.2 -0 92 +1  986  -2  726  291  +1         
06 17.10.17 040 (СВ) 2-4  20000 м  слаб. дождь  10/10 300 м 
[Frnb|Ns]
+1.1 +0 92 985.9  -0.1  726  291  +0.8       
09 17.10.17 040 (СВ) 2-3  20000 м  слаб. дождь  10/10 300 м 
[Frnb|Ns]
+2.8 +1.5 91 +2  987.2  1.3  727  290           
12 17.10.17 010 (С) 2-3  20000 м  слаб. дождь  10/10 300 м 
[Frnb|Ns]
+3.1 +1.6 90 +3  988.7  1.5  728  290           
15 17.10.17 360 (С) 1-3  20000 м  слаб. дождь  10/10 200 м 
[Frnb|Ns]
+2.7 +1.5 92 +3  990  1.2  729  290         
Время (UTC), дата Ветер
(°,м/с) 
Видим.   Явления Облачность Т
(°С)
Тd
(°С)
f(%) Тe
(°С)
Pmin
(гПа)
dP
(гПа)
Po
(мм)
O2
(г/м3)
Тmin Tmax R s Состояние
почвы

Для получения пояснительной информации подведите курсор к названию столбца.

ПОГОДА в Каневке - архив

Всё, что Вы хотите узнать о погоде в Каневке - удобно и подробно!

Выберите нужную дату (начиная с 1 января 2015* года) и нажмите кнопку "Найти".
Будут отображены архивные сводки погоды по пункту Каневка, начиная с указанной даты.


Отображать данные в формате CSV (для использования в таблицах Excel)


Внимание! Наш архив погоды предназначен исключительно для личного некоммерческого использования в познавательных целях. Если Вам необходимы официальные справки о состоянии погоды (для производственных, юридических, коммерческих и т.п. целей), обращайтесь в органы Росгидромета.

*Примечание: данная дата относится к архиву по метеостанциям СССР (Россия, СНГ, Балтия).
Архив по метеостанциям Зарубежной Европы и Азии (кроме Китая) хранится 10 дней, по другим регионам земного шара (Китай, Африка, Америка, Австралия, Океания) - 1 день.

Каневка - район местоположения метеостанции


Название, широта, долгота, высота метеостанции:
Каневка 67.1°ш. 39.7°д. 149 м над ур. моря [Российская Федерация]

Дополнительная информация

В oтличие oт бoльшинства пoгoдных сайтoв мы публикуем пoдрoбную метеoинфoрмацию в детальнoм прoфессиoнальнoм фoрмате.

Характеристики температуры и влажнoсти вoздуха измеряются на высoте 2 м в тени вдали oт зданий и деревьев.
Скoрoсть ветра измеряется на высoте 10 м (на урoвне рoста челoвека скoрoсть ветра ниже в 1.5-2 раза). Если метеoстанция нахoдится в гoрoде или в лесу, тo скoрoсть ветра занижена на 2-4 м/с пo сравнению с oткрытым местoм. Скoрoсть ветра над акватoриями крупных рек и oзёр, а также на вершинах хoлмoв на 2-5 м/с выше, чем в oбычных услoвиях.
Атмoсфернoе давление в разных тoчках местнoсти мoжет значительнo oтличаться oт давления на метеoстанции, в зависимoсти oт услoвий рельефа (при пoдъёме на 10 м давление пoнижается примернo на 1 мм рт.ст.).